Hourly Weather Roundup
Issued by NWS

Home | Current Version | Previous Version | Text Only | Print | Product List | Glossary On
Versions: 1 2 3 4 5 6 7 8 9 10 11 12 13 14 15 16 17 18 19 20 21 22 23 24 25 26 27 28 29 30 31 32 33 34 35 36 37 38 39 40 41 42 43 44 45 46 47 48 49 50
000
NZUS43 KILX 252010
HWRCRS

CRS HOURLY WEATHER ROUNDUP
NATIONAL WEATHER SERVICE, LINCOLN IL
300 PM CDT MON MAY 25 2015


CITY           SKY/WX    TMP DP  RH WIND       PRES   REMARKS
CHAMPAIGN      PTSUNNY   83  55  38 SW16G28   29.99F HX  82
LAWRENCEVILLE  CLOUDY    79  65  62 S17       30.06F HX  81
PEORIA         MOSUNNY   81  62  52 SW17G23   29.94S HX  82
SPRINGFIELD    MOSUNNY   83  61  47 S15G29    29.96F HX  83
$$


CITY           SKY/WX    TMP DP  RH WIND       PRES   REMARKS
BLOOMINGTON    PTSUNNY   79  62  55 SW17      29.98F HX  80
DECATUR        CLOUDY    80  61  52 S17G23    29.98F HX  81
EFFINGHAM      CLOUDY    79  63  57 SE10G17   30.04R HX  80
FLORA          CLOUDY    77  65  65 S18       30.04F
GALESBURG      PTSUNNY   76  63  64 S17       29.94R
JACKSONVILLE   FAIR      83  61  47 S13       29.96R HX  84
LACON          MOSUNNY   77  62  58 SW14G22   29.93R
LINCOLN        PTSUNNY   81  62  51 S12       29.94S HX  82
LITCHFIELD     PTSUNNY   79  64  59 S13G18    29.99F HX  80

CITY           SKY/WX    TMP DP  RH WIND       PRES   REMARKS
MACOMB         MOSUNNY   79  62  57 S16       29.96R HX  80
MATTOON        CLOUDY    77  66  68 S13       30.00S
MOLINE         MOSUNNY   78  61  55 SW17      29.89R HX  80
OLNEY          CLOUDY    77  64  65 S12G21    30.04F
PARIS          CLOUDY    81  63  54 SW20      30.03R HX  83
PONTIAC        PTSUNNY   79  62  55 SW15      29.96S HX  80
QUINCY         MOSUNNY   79  63  57 S14G22    29.94S HX  80
RANTOUL        PTSUNNY   83  60  44 SW18G25   29.98S HX  83
ROBINSON       CLOUDY    79  65  62 S16       30.05F HX  80
TAYLORVILLE    PTSUNNY   79  63  57 S13       29.98F HX  80
TERRE HAUTE    CLOUDY    78  64  61 S16G23    30.03F HX  80
$$


CITY           SKY/WX    TMP DP  RH WIND       PRES   REMARKS
BURLINGTON     SUNNY     78  65  63 S16G23    29.93R HX  80
CHICAGO        PTSUNNY   75  61  61 SW20G26   29.90R
DES MOINES     MOSUNNY   79  60  52 S17G28    29.82F HX  80
EVANSVILLE     CLOUDY    75  66  73 S9        30.09F
INDIANAPOLIS   PTSUNNY   77  64  64 SW17G28   30.04F
KANSAS CITY    PTSUNNY   77  67  71 S20G28    29.87F
MILWAUKEE      MOSUNNY   75  61  61 SW21G28   29.85R
ST LOUIS       PTSUNNY   85  62  46 S12G18    29.97F HX  85
$$




USA.gov is the U.S. government's official web portal to all federal, state and local government web resources and services.